SCP
0 0 0 0 0 0 0 0 0 0 0 0 0 0 0 0 0 0 0 0 0 0 0 0 0 0 0 0 0 0 0 0 0 0 0 0 0 0 0 0 0 0 0
0 0 0 0 0 0 0 0 0 0 0 0 0 0 0 0 0 0 0 0 0 0 0 0 0 0 0 0 0 0 0 0 0 0 0 0 0 0 0 0 0 0 0
0 0 0 0 0 0 0 0 0 0 0 0 0 0 0 0 0 0 0 0 0 0 0 0 0 0 0 0 0 0 0 0 0 0 0 0 0 0 0 0 0 0 0
0 0 0 0 0 0 0 0 0 0 0 0 0 0 0 0 0 0 0 0 0 0 0 0 0 0 0 0 0 0 0 0 0 0 0 0 0 0 0 0 0 0 0
0 0 0 0 0 0 0 0 0 0 0 0 0 0 0 0 0 0 0 0 0 0 0 0 0 0 0 0 0 0 0 0 0 0 0 0 0 0 0 0 0 0 0
0 0 0 0 0 0 0 0 0 0 0 0 0 0 0 0 0 0 0 0 0 0 0 0 0 0 0 0 0 0 0 0 0 0 0 0 0 0 0 0 0 0 0
0 0 0 0 0 0 0 0 0 0 0 0 0 0 0 0 0 0 0 0 0 0 0 0 0 0 0 0 0 0 0 0 0 0 0 0 0 0 0 0 0 0 0
0 0 0 0 0 0 0 0 0 0 0 0 0 0 0 0 0 0 0 0 0 0 0 0 0 0 0 0 0 0 0 0 0 0 0 0 0 0 0 0 0 0 0
0 0 0 0 0 0 0 0 0 0 0 0 0 0 0 0 0 0 0 0 0 0 0 0 0 0 0 0 0 0 0 0 0 0 0 0 0 0 0 0 0 0 0
0 0 0 0 0 0 0 0 0 0 0 0 0 0 0 0 0 0 0 0 0 0 0 0 0 0 0 0 0 0 0 0 0 0 0 0 0 0 0 0 0 0 0
0 0 0 0 0 0 0 0 0 0 0 0 0 0 0 0 0 0 0 0 0 0 0 0 0 0 0 0 0 0 0 0 0 0 0 0 0 0 0 0 0 0 0
0 0 0 0 0 0 0 0 0 0 0 0 0 0 0 0 0 0 0 0 0 0 0 0 0 0 0 0 0 0 0 0 0 0 0 0 0 0 0 0 0 0 0
0 0 0 0 0 0 0 0 0 0 0 0 0 0 0 0 0 0 0 0 0 0 0 0 0 0 0 0 0 0 0 0 0 0 0 0 0 0 0 0 0 0 0
0 0 0 0 0 0 0 0 0 0 0 0 0 0 0 0 0 0 0 0 0 0 0 0 0 0 0 0 0 0 0 0 0 0 0 0 0 0 0 0 0 0 0
0 0 0 0 0 0 0 0 0 0 0 0 0 0 0 0 0 0 0 0 0 0 0 0 0 0 0 0 0 0 0 0 0 0 0 0 0 0 0 0 0 0 0
0 0 0 0 0 0 0 0 0 0 0 0 0 0 0 0 0 0 0 0 0 0 0 0 0 0 0 0 0 0 0 0 0 0 0 0 0 0 0 0 0 0 0
0 0 0 0 0 0 0 0 0 0 0 0 0 0 0 0 0 0 0 0 0 0 0 0 0 0 0 0 0 0 0 0 0 0 0 0 0 0 0 0 0 0 0
0 0 0 0 0 0 0 0 0 0 0 0 0 0 0 0 0 0 0 0 0 0 0 0 0 0 0 0 0 0 0 0 0 0 0 0 0 0 0 0 0 0 0
0 0 0 0 0 0 0 0 0 0 0 0 0 0 0 0 0 0 0 0 0 0 0 0 0 0 0 0 0 0 0 0 0 0 0 0 0 0 0 0 0 0 0
0 0 0 0 0 0 0 0 0 0 0 0 0 0 0 0 0 0 0 0 0 0 0 0 0 0 0 0 0 0 0 0 0 0 0 0 0 0 0 0 0 0 0
0 0 0 0 0 0 0 0 0 0 0 0 0 0 0 0 0 0 0 0 0 0 0 0 0 0 0 0 0 0 0 0 0 0 0 0 0 0 0 0 0 0 -0
0 0 0 0 0 0 0 0 0 0 0 0 0 0 0 0 0 0 0 0 0 0 0 0 0 0 0 0 0 0 0 0 0 0 0 0 0 0 0 0 -0 -0 -0
0 0 0 0 0 0 0 0 0 0 0 0 0 0 0 0 0 0 0 0 0 0 0 0 0 0 0 0 0 0 0 0 0 0 -0 -0 -0 -0 -0 -0 -0 -0 -0
0 0 0 0 0 0 0 0 0 0 0 0 0 0 0 0 0 0 0 0 0 0 0 0 0 0 0 0 0 0 0 0 0 -0 -0 -0 -0 -0 -0 -0 -0 -0 -0
0 0 0 0 0 0 0 0 0 0 0 0 0 0 0 0 0 0 0 0 0 0 0 0 0 0 0 0 -0 -0 -0 -0 -0 -0 -0 -0 -0 -0 -0 -0 -0 -0 -0
0 0 0 0 0 0 0 0 0 0 0 0 0 0 0 0 0 0 0 0 0 0 0 0 0 0 0 0 -0 -0 -0 -0 -0 -0 -0 -0 -0 -0 -0 -0 -0 -0 -0
Wind_Speed_500mb
59 57 54 48 44 42 43 40 37 38 40 43 45 48 50 51 54 57 59 60 63 66 65 70 71 70 72 73 76 79 82 79 64 103 107 111 116 91 93 98 82 93 102
60 58 57 52 47 48 47 42 39 43 45 47 49 52 54 55 57 61 62 63 67 70 70 72 74 72 73 76 79 82 85 86 70 76 107 113 111 106 90 97 98 81 78
64 58 58 57 53 52 49 46 46 49 50 51 53 54 56 59 61 62 65 67 70 71 71 74 74 73 77 80 81 85 86 85 78 70 91 100 102 87 98 92 81 87 92
68 63 62 59 55 54 50 49 51 52 53 53 55 56 57 59 62 64 68 70 74 74 73 75 74 75 79 82 83 82 80 75 77 79 85 89 89 94 81 75 116 87 95
74 69 66 58 56 54 54 51 52 53 53 54 56 57 58 62 65 67 71 75 76 76 77 75 76 78 81 81 74 77 68 73 80 79 84 89 85 83 94 89 94 100 103
78 75 65 60 56 55 54 52 52 51 52 55 57 58 60 63 66 67 72 74 75 78 78 76 78 80 82 81 80 62 57 65 74 80 86 83 96 86 85 79 117 100 98
80 75 69 63 60 57 52 51 50 50 53 55 56 59 61 64 66 69 69 71 74 75 77 79 82 81 79 83 83 72 67 58 60 72 84 88 85 72 102 106 78 101 109
77 74 68 63 59 54 51 50 49 51 52 52 55 61 63 64 65 65 66 69 73 74 75 78 81 82 82 70 71 78 77 81 77 70 59 68 90 99 87 98 106 112 108
77 71 64 58 54 50 50 48 49 50 49 54 58 60 60 59 60 62 64 69 71 72 74 76 76 80 73 57 69 77 86 82 58 64 82 83 79 86 88 93 94 89 97
73 64 56 53 50 50 47 48 47 47 52 54 54 55 56 56 57 61 63 64 69 72 76 78 72 56 59 61 69 76 80 81 97 93 90 91 88 86 79 73 76 77 80
59 54 54 51 49 47 46 44 43 47 49 50 51 49 51 55 58 60 60 58 59 66 75 80 76 58 62 66 66 72 80 83 91 92 95 89 86 78 71 67 68 70 74
57 54 52 50 47 44 40 40 43 45 46 45 44 45 49 54 57 60 59 50 47 56 64 67 71 66 71 63 62 71 76 76 84 87 85 82 81 75 70 71 67 69 67
56 54 51 47 43 38 36 39 40 39 40 41 45 50 53 56 59 60 59 54 45 49 57 64 63 64 66 77 87 84 75 75 77 75 75 75 72 72 71 73 69 72 73
54 51 48 43 38 35 37 35 33 33 36 40 46 52 57 60 62 59 58 58 58 59 60 54 60 73 80 75 71 66 65 67 68 69 73 70 68 69 72 73 76 75 81
50 47 44 39 36 35 31 28 28 28 33 40 45 53 60 62 58 44 46 51 53 53 56 68 70 65 67 66 64 63 67 67 66 68 71 72 70 71 71 74 77 78 80
49 47 41 37 34 30 26 25 25 26 31 37 43 49 53 55 50 42 43 44 46 49 60 61 64 62 62 64 64 68 68 67 66 69 70 70 71 73 77 77 79 80 84
47 42 38 35 30 26 22 20 21 26 32 38 43 47 49 51 51 42 41 40 50 53 54 56 57 58 60 62 64 69 70 65 65 69 71 70 72 74 78 81 83 84 89
44 39 34 30 26 22 19 19 23 28 30 32 37 42 44 44 48 47 45 51 48 44 49 52 53 56 58 61 65 69 67 65 67 70 71 71 73 77 80 82 84 88 92
42 37 32 27 22 17 16 21 25 29 33 35 35 33 39 39 38 39 41 45 50 52 51 51 50 54 56 60 65 65 62 66 69 73 73 75 76 79 81 82 88 91 93
39 34 28 22 16 14 16 20 23 26 29 31 34 36 37 36 34 35 40 45 47 49 52 52 52 54 56 60 65 64 65 69 74 78 79 78 78 80 82 86 90 96 97
37 33 25 17 12 12 14 17 21 23 25 26 29 33 35 42 43 43 45 46 48 49 49 52 55 56 57 61 65 65 66 73 76 81 81 81 82 83 79 88 94 97 99
35 27 19 12 8 8 11 15 17 21 23 25 26 28 34 36 40 43 44 46 47 47 46 51 56 57 59 62 65 64 69 75 80 85 84 85 82 80 90 96 98 101 102
32 23 16 9 4 5 9 12 15 18 23 26 29 31 34 37 40 43 46 47 48 48 47 49 56 60 59 60 62 61 71 77 82 85 86 86 84 92 101 102 102 106 105
27 19 13 7 2 2 7 11 15 20 23 27 31 34 38 40 42 45 46 48 49 49 48 51 55 60 63 62 62 58 68 72 80 81 77 82 93 103 106 103 100 98 92
24 17 12 8 4 2 5 12 16 20 24 29 32 35 38 40 43 45 47 49 51 53 52 53 56 63 63 63 57 61 64 70 72 68 68 78 93 98 95 90 92 100 96
23 19 15 10 5 1 7 12 16 21 24 28 33 37 41 44 46 48 50 52 54 55 55 56 60 65 62 62 58 62 66 73 71 71 81 95 100 91 94 98 96 92 93
Wind_Direction_500mb
235 238 242 244 249 255 262 269 276 282 287 289 293 294 297 300 303 303 306 307 309 309 311 311 312 311 310 314 316 317 317 315 293 311 315 317 317 317 318 322 319 316 313
240 243 246 248 248 253 261 270 277 282 285 289 291 292 296 297 300 302 302 304 305 307 308 308 309 309 311 313 314 315 315 314 307 299 314 316 314 315 315 318 317 315 308
242 245 248 250 251 256 263 270 273 278 283 286 289 292 293 296 297 299 300 301 304 305 305 305 307 309 311 312 313 313 314 313 315 304 300 308 309 311 314 318 316 312 305
239 242 246 249 253 258 263 267 272 274 279 286 289 292 294 295 297 299 300 302 303 302 302 303 307 309 309 309 312 312 313 311 305 302 301 302 305 310 317 311 310 310 307
234 238 242 247 251 254 257 264 269 272 278 285 290 292 293 295 297 299 301 301 300 301 302 306 307 307 307 309 311 310 305 302 301 302 300 302 305 309 308 307 306 310 305
232 236 242 246 250 251 254 260 268 270 277 285 289 290 292 294 296 297 298 298 300 302 304 305 304 304 306 307 307 300 296 298 300 300 302 300 303 304 306 305 307 307 308
232 235 239 242 245 247 252 259 265 272 280 284 287 289 290 291 293 296 297 298 299 301 302 304 304 305 307 309 308 308 308 305 298 298 297 298 301 302 302 307 304 303 301
232 234 237 241 244 244 249 258 267 275 279 283 285 286 289 292 294 296 298 297 298 300 303 303 302 305 308 311 313 310 308 307 311 303 292 292 297 303 300 298 300 299 302
229 230 233 239 239 242 252 262 270 275 280 282 285 288 290 293 296 299 298 298 299 302 303 302 305 310 313 310 308 305 308 312 298 297 302 298 296 299 300 302 303 306 306
225 227 229 229 233 245 256 265 270 277 281 283 287 289 293 299 300 300 299 301 304 303 304 307 311 306 306 308 308 308 304 300 306 309 302 302 305 306 306 303 307 308 309
219 219 221 224 235 247 256 263 273 278 282 286 287 293 298 300 301 302 303 305 305 305 304 307 311 309 308 309 307 297 298 307 305 301 304 309 310 309 309 309 311 310 308
209 213 219 228 239 247 256 267 273 278 282 285 292 296 298 301 303 305 307 307 305 304 307 307 308 312 306 304 302 305 309 306 306 308 308 312 314 316 316 315 315 311 309
206 212 221 232 241 249 260 267 272 279 285 290 294 300 305 307 308 311 314 316 311 308 304 308 303 301 305 307 308 312 310 309 310 312 313 314 315 317 318 319 319 318 316
209 217 225 232 240 251 259 265 273 280 288 294 303 306 308 313 316 319 325 326 318 319 327 307 301 300 303 307 310 312 313 315 318 319 318 319 320 322 322 326 326 326 323
213 220 224 231 242 249 254 263 272 282 294 303 309 312 314 317 320 322 319 319 323 314 302 304 312 317 318 319 320 320 320 322 325 325 324 324 325 325 325 328 328 329 326
216 219 225 233 238 242 251 261 276 292 303 308 312 314 315 314 315 320 323 322 310 316 313 320 321 323 324 324 325 323 323 327 329 328 327 327 328 328 327 328 329 329 327
216 219 225 229 231 234 244 264 285 299 309 314 316 315 315 314 319 324 325 321 321 319 322 322 322 324 325 325 326 327 327 329 329 329 329 330 329 328 328 328 329 330 328
214 219 220 219 222 232 251 276 293 304 310 315 317 316 316 321 321 321 321 324 325 324 325 324 324 325 326 326 328 328 328 330 331 330 331 331 330 328 326 327 328 328 328
212 210 209 210 219 239 273 293 305 314 318 319 319 320 315 319 323 322 324 327 330 331 330 326 327 327 327 327 328 328 328 331 333 333 331 329 329 329 325 326 327 327 328
200 198 199 205 223 259 286 302 313 319 320 321 320 322 322 324 330 332 330 330 329 328 327 326 328 328 328 328 329 328 329 332 334 333 330 328 328 327 325 325 326 325 326
192 190 195 209 238 270 296 313 320 320 318 320 323 324 330 331 333 334 334 331 329 328 326 325 327 329 329 329 330 328 328 331 333 333 331 330 328 326 327 326 326 327 326
185 186 193 210 245 287 311 315 319 317 320 322 324 326 328 328 330 330 329 328 327 327 324 322 325 329 331 330 330 329 331 332 334 334 332 331 330 329 329 328 328 327 326
181 182 185 197 231 305 315 319 319 323 323 325 330 332 331 331 331 328 327 327 325 326 323 321 324 328 329 329 329 327 329 330 331 332 330 329 329 330 330 327 326 323 319
173 173 174 165 166 322 313 323 326 325 330 332 332 332 332 331 330 328 327 325 323 325 325 322 324 328 328 328 328 325 327 327 330 331 329 328 328 330 326 323 320 317 309
163 159 147 141 139 267 315 329 325 333 334 330 330 331 332 330 329 328 327 326 325 325 325 324 327 329 329 329 329 327 326 328 330 332 332 329 326 324 320 314 309 315 316
152 145 146 143 155 10 337 329 337 337 331 330 332 334 333 332 331 329 328 327 327 326 325 326 328 331 330 329 328 329 332 335 332 336 335 330 327 318 317 320 322 320 317
Wind_Speed_850mb
59 57 54 48 44 42 43 40 37 38 40 43 45 48 50 51 54 57 59 60 63 66 65 70 71 70 72 73 76 79 82 79 64 103 107 111 116 91 93 98 82 93 102
60 58 57 52 47 48 47 42 39 43 45 47 49 52 54 55 57 61 62 63 67 70 70 72 74 72 73 76 79 82 85 86 70 76 107 113 111 106 90 97 98 81 78
64 58 58 57 53 52 49 46 46 49 50 51 53 54 56 59 61 62 65 67 70 71 71 74 74 73 77 80 81 85 86 85 78 70 91 100 102 87 98 92 81 87 92
68 63 62 59 55 54 50 49 51 52 53 53 55 56 57 59 62 64 68 70 74 74 73 75 74 75 79 82 83 82 80 75 77 79 85 89 89 94 81 75 116 87 95
74 69 66 58 56 54 54 51 52 53 53 54 56 57 58 62 65 67 71 75 76 76 77 75 76 78 81 81 74 77 68 73 80 79 84 89 85 83 94 89 94 100 103
78 75 65 60 56 55 54 52 52 51 52 55 57 58 60 63 66 67 72 74 75 78 78 76 78 80 82 81 80 62 57 65 74 80 86 83 96 86 85 79 117 100 98
80 75 69 63 60 57 52 51 50 50 53 55 56 59 61 64 66 69 69 71 74 75 77 79 82 81 79 83 83 72 67 58 60 72 84 88 85 72 102 106 78 101 109
77 74 68 63 59 54 51 50 49 51 52 52 55 61 63 64 65 65 66 69 73 74 75 78 81 82 82 70 71 78 77 81 77 70 59 68 90 99 87 98 106 112 108
77 71 64 58 54 50 50 48 49 50 49 54 58 60 60 59 60 62 64 69 71 72 74 76 76 80 73 57 69 77 86 82 58 64 82 83 79 86 88 93 94 89 97
73 64 56 53 50 50 47 48 47 47 52 54 54 55 56 56 57 61 63 64 69 72 76 78 72 56 59 61 69 76 80 81 97 93 90 91 88 86 79 73 76 77 80
59 54 54 51 49 47 46 44 43 47 49 50 51 49 51 55 58 60 60 58 59 66 75 80 76 58 62 66 66 72 80 83 91 92 95 89 86 78 71 67 68 70 74
57 54 52 50 47 44 40 40 43 45 46 45 44 45 49 54 57 60 59 50 47 56 64 67 71 66 71 63 62 71 76 76 84 87 85 82 81 75 70 71 67 69 67
56 54 51 47 43 38 36 39 40 39 40 41 45 50 53 56 59 60 59 54 45 49 57 64 63 64 66 77 87 84 75 75 77 75 75 75 72 72 71 73 69 72 73
54 51 48 43 38 35 37 35 33 33 36 40 46 52 57 60 62 59 58 58 58 59 60 54 60 73 80 75 71 66 65 67 68 69 73 70 68 69 72 73 76 75 81
50 47 44 39 36 35 31 28 28 28 33 40 45 53 60 62 58 44 46 51 53 53 56 68 70 65 67 66 64 63 67 67 66 68 71 72 70 71 71 74 77 78 80
49 47 41 37 34 30 26 25 25 26 31 37 43 49 53 55 50 42 43 44 46 49 60 61 64 62 62 64 64 68 68 67 66 69 70 70 71 73 77 77 79 80 84
47 42 38 35 30 26 22 20 21 26 32 38 43 47 49 51 51 42 41 40 50 53 54 56 57 58 60 62 64 69 70 65 65 69 71 70 72 74 78 81 83 84 89
44 39 34 30 26 22 19 19 23 28 30 32 37 42 44 44 48 47 45 51 48 44 49 52 53 56 58 61 65 69 67 65 67 70 71 71 73 77 80 82 84 88 92
42 37 32 27 22 17 16 21 25 29 33 35 35 33 39 39 38 39 41 45 50 52 51 51 50 54 56 60 65 65 62 66 69 73 73 75 76 79 81 82 88 91 93
39 34 28 22 16 14 16 20 23 26 29 31 34 36 37 36 34 35 40 45 47 49 52 52 52 54 56 60 65 64 65 69 74 78 79 78 78 80 82 86 90 96 97
37 33 25 17 12 12 14 17 21 23 25 26 29 33 35 42 43 43 45 46 48 49 49 52 55 56 57 61 65 65 66 73 76 81 81 81 82 83 79 88 94 97 99
35 27 19 12 8 8 11 15 17 21 23 25 26 28 34 36 40 43 44 46 47 47 46 51 56 57 59 62 65 64 69 75 80 85 84 85 82 80 90 96 98 101 102
32 23 16 9 4 5 9 12 15 18 23 26 29 31 34 37 40 43 46 47 48 48 47 49 56 60 59 60 62 61 71 77 82 85 86 86 84 92 101 102 102 106 105
27 19 13 7 2 2 7 11 15 20 23 27 31 34 38 40 42 45 46 48 49 49 48 51 55 60 63 62 62 58 68 72 80 81 77 82 93 103 106 103 100 98 92
24 17 12 8 4 2 5 12 16 20 24 29 32 35 38 40 43 45 47 49 51 53 52 53 56 63 63 63 57 61 64 70 72 68 68 78 93 98 95 90 92 100 96
23 19 15 10 5 1 7 12 16 21 24 28 33 37 41 44 46 48 50 52 54 55 55 56 60 65 62 62 58 62 66 73 71 71 81 95 100 91 94 98 96 92 93
Wind_Direction_850mb
235 238 242 244 249 255 262 269 276 282 287 289 293 294 297 300 303 303 306 307 309 309 311 311 312 311 310 314 316 317 317 315 293 311 315 317 317 317 318 322 319 316 313
240 243 246 248 248 253 261 270 277 282 285 289 291 292 296 297 300 302 302 304 305 307 308 308 309 309 311 313 314 315 315 314 307 299 314 316 314 315 315 318 317 315 308
242 245 248 250 251 256 263 270 273 278 283 286 289 292 293 296 297 299 300 301 304 305 305 305 307 309 311 312 313 313 314 313 315 304 300 308 309 311 314 318 316 312 305
239 242 246 249 253 258 263 267 272 274 279 286 289 292 294 295 297 299 300 302 303 302 302 303 307 309 309 309 312 312 313 311 305 302 301 302 305 310 317 311 310 310 307
234 238 242 247 251 254 257 264 269 272 278 285 290 292 293 295 297 299 301 301 300 301 302 306 307 307 307 309 311 310 305 302 301 302 300 302 305 309 308 307 306 310 305
232 236 242 246 250 251 254 260 268 270 277 285 289 290 292 294 296 297 298 298 300 302 304 305 304 304 306 307 307 300 296 298 300 300 302 300 303 304 306 305 307 307 308
232 235 239 242 245 247 252 259 265 272 280 284 287 289 290 291 293 296 297 298 299 301 302 304 304 305 307 309 308 308 308 305 298 298 297 298 301 302 302 307 304 303 301
232 234 237 241 244 244 249 258 267 275 279 283 285 286 289 292 294 296 298 297 298 300 303 303 302 305 308 311 313 310 308 307 311 303 292 292 297 303 300 298 300 299 302
229 230 233 239 239 242 252 262 270 275 280 282 285 288 290 293 296 299 298 298 299 302 303 302 305 310 313 310 308 305 308 312 298 297 302 298 296 299 300 302 303 306 306
225 227 229 229 233 245 256 265 270 277 281 283 287 289 293 299 300 300 299 301 304 303 304 307 311 306 306 308 308 308 304 300 306 309 302 302 305 306 306 303 307 308 309
219 219 221 224 235 247 256 263 273 278 282 286 287 293 298 300 301 302 303 305 305 305 304 307 311 309 308 309 307 297 298 307 305 301 304 309 310 309 309 309 311 310 308
209 213 219 228 239 247 256 267 273 278 282 285 292 296 298 301 303 305 307 307 305 304 307 307 308 312 306 304 302 305 309 306 306 308 308 312 314 316 316 315 315 311 309
206 212 221 232 241 249 260 267 272 279 285 290 294 300 305 307 308 311 314 316 311 308 304 308 303 301 305 307 308 312 310 309 310 312 313 314 315 317 318 319 319 318 316
209 217 225 232 240 251 259 265 273 280 288 294 303 306 308 313 316 319 325 326 318 319 327 307 301 300 303 307 310 312 313 315 318 319 318 319 320 322 322 326 326 326 323
213 220 224 231 242 249 254 263 272 282 294 303 309 312 314 317 320 322 319 319 323 314 302 304 312 317 318 319 320 320 320 322 325 325 324 324 325 325 325 328 328 329 326
216 219 225 233 238 242 251 261 276 292 303 308 312 314 315 314 315 320 323 322 310 316 313 320 321 323 324 324 325 323 323 327 329 328 327 327 328 328 327 328 329 329 327
216 219 225 229 231 234 244 264 285 299 309 314 316 315 315 314 319 324 325 321 321 319 322 322 322 324 325 325 326 327 327 329 329 329 329 330 329 328 328 328 329 330 328
214 219 220 219 222 232 251 276 293 304 310 315 317 316 316 321 321 321 321 324 325 324 325 324 324 325 326 326 328 328 328 330 331 330 331 331 330 328 326 327 328 328 328
212 210 209 210 219 239 273 293 305 314 318 319 319 320 315 319 323 322 324 327 330 331 330 326 327 327 327 327 328 328 328 331 333 333 331 329 329 329 325 326 327 327 328
200 198 199 205 223 259 286 302 313 319 320 321 320 322 322 324 330 332 330 330 329 328 327 326 328 328 328 328 329 328 329 332 334 333 330 328 328 327 325 325 326 325 326
192 190 195 209 238 270 296 313 320 320 318 320 323 324 330 331 333 334 334 331 329 328 326 325 327 329 329 329 330 328 328 331 333 333 331 330 328 326 327 326 326 327 326
185 186 193 210 245 287 311 315 319 317 320 322 324 326 328 328 330 330 329 328 327 327 324 322 325 329 331 330 330 329 331 332 334 334 332 331 330 329 329 328 328 327 326
181 182 185 197 231 305 315 319 319 323 323 325 330 332 331 331 331 328 327 327 325 326 323 321 324 328 329 329 329 327 329 330 331 332 330 329 329 330 330 327 326 323 319
173 173 174 165 166 322 313 323 326 325 330 332 332 332 332 331 330 328 327 325 323 325 325 322 324 328 328 328 328 325 327 327 330 331 329 328 328 330 326 323 320 317 309
163 159 147 141 139 267 315 329 325 333 334 330 330 331 332 330 329 328 327 326 325 325 325 324 327 329 329 329 329 327 326 328 330 332 332 329 326 324 320 314 309 315 316
152 145 146 143 155 10 337 329 337 337 331 330 332 334 333 332 331 329 328 327 327 326 325 326 328 331 330 329 328 329 332 335 332 336 335 330 327 318 317 320 322 320 317